Vertical_Velocity
-4 -2 -1 -0 1 -0 -0 -1 -1 0 -0 -1 -1 -2 -1 -1 -1 -1 -0 -0 -0 0 -0 0 -1 -2 -3 -2 -1 -1 -1 -1 -0 1 0 -1 0 0 -0 -0 -0 -1 -1
-0 -3 -3 0 -0 -1 0 0 -1 -1 -1 -0 -2 -2 -1 -1 0 -0 0 1 0 0 0 0 -0 -1 -1 -1 -2 -1 -1 -1 -1 -0 -0 -0 0 -0 -1 -1 -1 0 -2
1 1 -1 1 -1 -2 -1 0 1 -1 -0 -1 0 -3 -1 -2 0 1 -1 -0 0 1 -1 1 1 0 -0 -1 -0 -2 -2 -1 -1 -1 -0 -1 -0 0 0 -0 -1 0 -0
1 -1 -1 -1 1 -2 -2 -0 -0 1 1 0 1 -0 -2 -1 -3 2 1 -1 -1 0 -0 0 2 1 0 -1 -1 -0 -1 -1 -1 -2 -1 -1 -1 0 0 -0 -0 -1 -1
2 -1 1 2 1 1 -1 -1 -1 1 1 1 2 -1 -2 -1 -2 -2 -1 -1 -1 -1 -1 -1 1 1 1 1 -1 -0 -0 0 0 -0 -1 -1 -1 -1 -0 -1 -1 -1 -1
2 2 2 3 4 3 2 -2 1 -1 1 3 2 2 -2 -0 -1 -3 0 -1 -1 -0 -0 -1 -1 -0 1 0 2 0 0 -1 -1 1 -0 -0 -1 -1 -1 -1 -1 -1 0
0 1 2 1 4 3 3 -0 3 -1 -2 1 3 2 2 0 -1 -4 1 -0 -0 -1 -1 -1 -1 -1 -1 1 -1 1 0 2 -1 -1 -0 0 -0 -0 -1 -2 -2 -2 -1
-1 1 -0 1 2 3 5 -2 1 1 -1 -3 2 2 2 -0 -2 1 1 -2 -3 -0 -1 -1 -2 -1 -0 -1 -1 -1 -1 0 0 0 -1 -0 1 -0 -0 1 0 -1 -1
-7 -2 -2 -0 2 -2 -1 3 1 3 -1 -1 -1 1 3 1 1 -0 -1 -0 -1 -0 1 0 0 -2 -0 -0 -0 -2 -0 -1 -0 -1 -1 -1 -0 0 -1 -1 -1 -2 -2
-4 -2 -6 2 1 -1 4 -1 1 1 -0 1 -1 2 2 1 4 2 -0 1 -2 -2 -1 -0 0 -0 -1 -1 1 -0 -1 -2 1 -2 -0 0 -1 -2 -2 -1 -0 -1 -1
-5 -2 -1 0 -2 -3 -2 2 -1 1 -2 1 -1 2 4 0 -1 -0 1 -0 1 1 -2 -1 -2 0 -1 -0 -1 -0 -1 -1 -3 -1 -1 -1 -1 -0 -0 -1 -1 0 -1
-7 7 -2 5 6 2 3 -1 2 4 -1 -5 2 1 1 1 2 3 0 2 -1 1 2 -2 -2 -1 0 -1 -1 -1 -2 -1 -0 -1 -3 -2 -1 -1 -0 -0 1 -1 -1
3 -5 3 8 16 -0 -1 7 -7 0 7 -4 -1 1 10 3 1 3 -1 -3 -1 -1 1 1 -0 -3 -2 -0 -3 1 -0 -1 0 0 -2 -2 -2 -0 -1 1 -1 0 -1
-1 -2 3 -3 11 9 5 7 2 -9 1 2 4 -3 -4 1 -2 -2 3 1 -0 0 -0 0 0 -1 -1 1 -2 -0 -2 -0 -1 -0 -1 -2 -2 -1 -2 -1 -0 -2 -0
5 -6 4 3 5 4 11 -3 4 2 -5 5 5 2 -2 -2 0 4 1 2 2 -2 -1 -0 2 -1 -2 -1 0 -2 1 -3 -2 1 -1 -2 -4 0 -3 -1 -0 -1 -1
11 -4 -3 3 3 -2 0 14 -9 13 -2 0 25 -7 43 15 -9 8 2 1 -3 0 0 -1 -1 2 -1 -2 0 -2 2 1 -5 1 -2 -0 -2 -3 -1 0 -1 1 0
4 1 6 3 -3 2 5 -3 -23 5 -5 -7 1 15 -20 -2 3 2 2 1 2 0 2 -1 1 1 -1 -0 -3 2 -2 3 -3 -0 -0 -4 -0 -2 -3 -1 -1 -1 1
-2 -9 -1 2 -1 -7 0 6 -14 -14 20 -5 10 -3 -6 4 -3 3 2 2 2 2 0 0 -2 2 -3 -2 1 -2 -2 1 -3 2 -3 -4 -1 -2 -0 -1 -1 0 -0
1 -5 -5 1 -6 3 3 2 -9 -8 1 -4 9 -2 1 7 1 4 4 4 2 -0 3 2 -2 2 -2 -3 -1 -2 -3 -0 4 0 2 -5 -4 -0 -2 -4 -2 -2 -1
-1 -12 -6 5 1 -7 -6 6 13 -4 7 -12 5 1 7 7 4 3 3 3 0 1 0 2 1 1 3 3 2 1 -5 2 3 -7 -1 -4 -1 -2 -3 -2 -0 1 1
-9 -4 -11 3 3 -0 0 9 18 3 14 -15 4 5 6 5 4 1 3 3 1 4 3 1 2 0 3 -1 -4 3 -1 -2 -3 2 1 -5 -1 3 -0 2 -2 -2 -4
5 -16 41 3 3 5 -7 1 12 23 -19 5 18 7 4 8 1 -0 2 5 2 5 3 4 4 6 4 9 -1 2 -2 -1 0 -2 -2 -2 -1 5 -3 -0 2 6 3
-28 4 -8 56 5 4 15 6 -13 -11 23 2 5 -2 -3 13 8 3 4 -1 3 3 3 2 3 9 17 -6 8 4 -3 -4 -12 0 -1 -2 -1 1 3 3 1 1 -0
-17 -6 3 37 -0 9 23 6 -5 10 -10 6 2 21 6 -16 28 22 18 14 13 1 6 1 -8 -23 -13 2 -12 6 -4 -4 -8 2 -8 -1 -1 -2 2 4 -3 -1 1
4 -4 -5 40 14 25 20 13 -3 1 -2 10 15 11 28 17 1 4 -16 -7 4 -0 5 1 5 -1 1 -8 2 -8 4 3 -4 1 -3 1 3 2 -3 -4 -2 2 0
-10 -6 36 16 9 16 24 1 5 3 12 8 -20 -9 -8 -4 -6 -10 -15 -2 -7 -10 -5 3 -3 6 -1 -8 -4 1 3 -2 -11 -3 2 2 14 -0 2 3 1 -5 -3
Height
3150 3152 3152 3153 3154 3155 3155 3156 3157 3158 3160 3161 3161 3162 3163 3164 3166 3168 3169 3170 3171 3171 3171 3172 3172 3172 3173 3173 3172 3173 3173 3173 3174 3174 3174 3174 3174 3173 3173 3173 3173 3173 3172
3147 3150 3151 3152 3153 3153 3154 3155 3155 3156 3157 3159 3160 3162 3163 3164 3166 3168 3169 3170 3170 3171 3171 3171 3172 3172 3173 3174 3174 3174 3174 3174 3174 3175 3175 3175 3175 3175 3175 3175 3175 3174 3174
3145 3146 3148 3150 3152 3152 3152 3153 3154 3155 3156 3158 3159 3161 3163 3164 3165 3168 3169 3170 3170 3171 3171 3172 3172 3173 3173 3174 3174 3175 3175 3176 3177 3177 3177 3177 3177 3177 3177 3176 3176 3176 3175
3141 3144 3146 3148 3149 3150 3151 3152 3153 3154 3155 3157 3158 3160 3162 3164 3165 3167 3169 3170 3170 3171 3172 3172 3172 3173 3174 3174 3175 3176 3177 3178 3178 3179 3178 3178 3178 3178 3178 3178 3177 3177 3176
3138 3141 3143 3145 3147 3147 3149 3150 3151 3152 3154 3155 3157 3159 3161 3163 3165 3167 3168 3170 3170 3171 3172 3173 3173 3174 3175 3175 3176 3176 3177 3178 3179 3180 3180 3180 3180 3179 3179 3179 3178 3178 3177
3137 3140 3141 3142 3144 3145 3146 3148 3149 3150 3152 3154 3156 3157 3160 3162 3164 3166 3168 3169 3170 3170 3171 3172 3173 3174 3175 3176 3176 3177 3178 3179 3179 3180 3180 3181 3181 3180 3180 3180 3179 3179 3179
3135 3137 3139 3139 3141 3142 3143 3145 3147 3149 3150 3152 3154 3156 3158 3160 3163 3165 3167 3168 3169 3170 3171 3172 3173 3174 3175 3176 3177 3178 3178 3179 3179 3180 3180 3181 3181 3181 3181 3181 3180 3180 3179
3131 3133 3135 3135 3137 3139 3141 3143 3145 3146 3148 3150 3152 3155 3157 3159 3161 3164 3166 3167 3168 3170 3171 3172 3173 3175 3176 3177 3178 3178 3179 3180 3180 3180 3180 3180 3181 3181 3181 3180 3180 3179 3178
3124 3127 3130 3132 3133 3135 3137 3139 3141 3144 3146 3147 3150 3152 3155 3157 3159 3162 3164 3166 3167 3169 3170 3172 3174 3175 3176 3177 3178 3178 3179 3180 3180 3180 3180 3180 3180 3181 3181 3180 3180 3179 3178
3118 3122 3125 3128 3129 3131 3134 3136 3138 3141 3143 3145 3147 3150 3153 3155 3157 3160 3162 3165 3166 3168 3170 3172 3174 3175 3176 3177 3177 3178 3178 3179 3180 3180 3180 3180 3180 3180 3180 3180 3179 3178 3177
3111 3115 3119 3122 3126 3128 3130 3134 3135 3137 3140 3142 3145 3148 3150 3154 3156 3159 3160 3163 3165 3167 3169 3171 3173 3175 3176 3177 3177 3177 3177 3178 3179 3179 3179 3179 3179 3179 3179 3179 3178 3178 3177
3108 3111 3113 3116 3121 3124 3127 3129 3132 3135 3137 3140 3143 3146 3148 3151 3154 3157 3159 3161 3164 3166 3168 3170 3172 3174 3175 3176 3177 3177 3177 3177 3178 3178 3178 3178 3178 3178 3179 3179 3178 3177 3176
3104 3106 3110 3113 3115 3118 3121 3126 3128 3132 3134 3137 3141 3143 3147 3148 3150 3155 3157 3159 3162 3165 3167 3169 3171 3173 3175 3176 3176 3176 3177 3177 3177 3177 3177 3177 3177 3177 3177 3177 3176 3176 3175
3099 3102 3105 3107 3110 3112 3116 3119 3121 3125 3130 3134 3137 3140 3143 3146 3149 3152 3155 3158 3161 3164 3166 3168 3170 3172 3174 3175 3175 3176 3175 3176 3176 3176 3176 3176 3176 3176 3176 3176 3174 3174 3173
3091 3095 3099 3102 3106 3108 3110 3113 3116 3119 3125 3131 3133 3136 3140 3141 3146 3149 3153 3156 3159 3162 3165 3167 3169 3170 3172 3173 3174 3175 3175 3174 3174 3175 3175 3175 3175 3174 3174 3174 3174 3173 3171
3083 3087 3091 3095 3098 3101 3102 3106 3105 3112 3117 3124 3129 3131 3131 3135 3143 3146 3151 3153 3157 3160 3163 3165 3167 3169 3170 3171 3172 3172 3172 3172 3172 3173 3173 3172 3173 3173 3172 3172 3172 3171 3170
3072 3076 3082 3086 3090 3093 3096 3098 3101 3102 3108 3116 3124 3124 3134 3137 3141 3144 3148 3151 3154 3157 3160 3162 3164 3166 3166 3168 3169 3170 3170 3170 3169 3170 3170 3170 3170 3170 3170 3169 3169 3168 3167
3063 3065 3072 3076 3080 3086 3087 3091 3097 3097 3100 3110 3116 3121 3128 3131 3138 3141 3145 3149 3152 3155 3157 3160 3161 3162 3163 3164 3165 3166 3166 3167 3166 3166 3166 3167 3167 3167 3168 3167 3166 3165 3164
3055 3060 3064 3068 3072 3078 3080 3079 3082 3091 3096 3102 3110 3115 3123 3129 3133 3138 3142 3145 3148 3151 3153 3155 3157 3159 3160 3161 3161 3163 3162 3163 3162 3162 3162 3162 3163 3163 3163 3163 3162 3161 3160
3048 3052 3056 3060 3064 3068 3073 3074 3082 3082 3086 3096 3104 3112 3118 3123 3126 3131 3136 3140 3144 3147 3149 3152 3154 3155 3156 3157 3158 3158 3159 3158 3158 3158 3157 3157 3158 3158 3158 3157 3157 3157 3156
3043 3045 3047 3049 3057 3058 3061 3069 3072 3079 3085 3091 3100 3108 3113 3117 3121 3127 3132 3136 3140 3143 3145 3147 3149 3150 3151 3151 3153 3154 3154 3153 3153 3153 3152 3152 3153 3153 3152 3153 3152 3151 3150
3035 3035 3038 3043 3048 3053 3054 3063 3070 3076 3082 3087 3096 3102 3110 3114 3119 3124 3129 3132 3135 3138 3140 3142 3144 3145 3146 3147 3149 3149 3148 3149 3148 3147 3147 3148 3149 3149 3148 3148 3147 3146 3144
3026 3026 3031 3037 3043 3050 3053 3059 3066 3072 3079 3082 3087 3093 3103 3110 3116 3120 3124 3127 3129 3132 3134 3135 3136 3137 3139 3141 3142 3143 3142 3141 3143 3142 3140 3140 3143 3143 3143 3143 3142 3140 3138
3020 3023 3025 3027 3036 3043 3050 3055 3061 3069 3075 3079 3085 3089 3094 3101 3108 3113 3116 3119 3123 3127 3129 3130 3130 3131 3133 3136 3134 3135 3134 3133 3133 3131 3131 3133 3136 3138 3138 3136 3134 3133 3131
3017 3019 3022 3022 3031 3038 3044 3050 3058 3065 3072 3076 3080 3085 3091 3095 3105 3106 3110 3114 3114 3118 3122 3125 3127 3130 3128 3128 3128 3132 3128 3126 3125 3127 3126 3129 3130 3131 3130 3130 3129 3127 3126
3012 3013 3018 3027 3031 3036 3042 3047 3057 3064 3070 3074 3079 3082 3086 3092 3095 3101 3103 3109 3111 3113 3117 3120 3120 3120 3120 3119 3121 3125 3125 3125 3123 3120 3122 3123 3124 3126 3125 3125 3123 3122 3121